[[{"header":{"parameterUnit":"m.s-1","parameterCategory":1,"la1":30.2991,"la2":30.254,"lo1":-89.0895,"lo2":-89.0444,"dy":0.0017,"dx":0.0017,"nx":28,"ny":28,"refTime":"2024-03-09T03:00:00:Z","depth":0,"parameterNumber":2,"parameterNumberName":"U-component_of_WINDS"},"data":[0,0,0,0,0,0,0,0,0,0,0,0,0,0,0,0,0,0,0,0,0,0,0,0,0,0,0,0,0,0,0,0,0,0,0,0,0,0,0,0,0,0,0,0,0,0,0,0,0,0,0,0,0,0,0,0,0,0,1.9234,1.9235,0,1.9253,1.9253,1.9253,1.9259,1.9259,1.9258,1.9258,1.9275,1.9276,1.9277,0,0,0,0,0,0,0,0,0,0,0,0,0,1.9205,1.9205,1.9234,1.9235,1.9235,1.9253,1.9253,1.9253,1.9259,1.9259,1.9258,1.9258,1.9275,1.9276,1.9277,0,0,0,0,0,0,0,0,0,0,0,0,0,1.922,1.9205,1.9234,1.924,1.924,1.9253,1.9253,1.9253,1.9259,1.9259,1.9258,1.9258,1.9275,1.9276,1.9277,1.9284,0,0,1.9279,1.9279,0,0,0,0,0,0,0,0,1.9219,1.9221,1.9239,1.9239,1.924,1.9253,1.9249,1.9264,1.9259,1.9252,1.9258,1.9258,1.9268,1.9269,1.9273,1.9285,1.9286,1.9279,1.928,1.928,1.928,0,0,0,0,0,0,0,1.9218,1.922,1.9242,1.9239,1.924,1.9242,1.9244,1.9252,1.926,1.9252,1.9253,1.9255,1.9268,1.9272,1.9274,1.9286,1.9279,1.928,1.928,1.9281,1.9309,1.9309,0,0,0,0,0,0,1.9216,1.9219,1.9241,1.9242,1.9229,1.9242,1.9244,1.9249,1.926,1.9262,1.9255,1.9255,1.9271,1.9273,1.9274,1.9286,1.928,1.9281,1.9281,1.9309,1.9309,1.9309,0,0,0,0,0,0,1.9215,1.9218,1.924,1.9231,1.9234,1.9243,1.9248,1.925,1.9254,1.9262,1.9264,1.9257,1.9271,1.9273,1.9283,1.9286,1.9281,1.9282,1.9308,1.9309,1.9309,1.9308,0,0,0,0,0,0,1.9214,1.9218,1.922,1.9231,1.9234,1.9248,1.9248,1.925,1.9255,1.9255,1.9265,1.9266,1.9271,1.9281,1.9283,1.9288,1.9283,1.9308,1.9309,1.9309,1.9308,1.9308,1.9309,0,0,0,0,0,1.9213,1.9218,1.922,1.9223,1.9238,1.9248,1.925,1.9256,1.9255,1.9258,1.9265,1.9266,1.9286,1.9282,1.9285,1.9289,1.9308,1.9308,1.9309,1.9308,1.9308,1.9309,0,0,0,0,0,0,1.9206,1.9219,1.9222,1.923,1.9238,1.9249,1.9253,1.9256,1.9264,1.9263,1.927,1.9272,1.9282,1.9286,1.9282,1.9299,1.9297,1.9298,1.9295,1.9296,1.9297,1.9295,1.9283,0,0,0,0,0,1.9205,1.9213,1.9224,1.923,1.9235,1.9243,1.9248,1.9252,1.926,1.9263,1.927,1.9278,1.9287,1.9291,1.9299,1.9309,1.9312,1.9313,1.9314,1.9314,1.9315,1.9323,1.9324,1.9311,1.9311,1.9311,0,0,1.9204,1.9212,1.9216,1.9229,1.9236,1.9244,1.9246,1.9253,1.926,1.9264,1.9274,1.928,1.9289,1.93,1.9305,1.9304,1.932,1.9315,1.9315,1.9316,1.9324,1.9325,1.9326,1.9312,1.9312,1.9311,0,0,1.9205,1.9212,1.9219,1.9227,1.9238,1.9244,1.9246,1.9257,1.9262,1.9272,1.9277,1.9285,1.9298,1.9306,1.9311,1.932,1.9322,1.9322,1.9325,1.9333,1.9334,1.9335,1.9339,1.9341,1.9323,1.9323,1.9323,0,1.9202,1.9214,1.9222,1.9231,1.9237,1.9244,1.9252,1.9259,1.9271,1.9276,1.9275,1.9295,1.9301,1.9315,1.9317,1.9321,1.9324,1.9321,1.9333,1.9334,1.9335,1.934,1.9341,1.9323,1.9323,1.9323,1.9323,0,1.9211,1.922,1.9224,1.9238,1.9245,1.9253,1.9263,1.9269,1.9274,1.9281,1.9293,1.9302,1.9313,1.9317,1.932,1.9332,1.9331,1.9332,1.933,1.9336,1.9341,1.9342,1.9323,1.9323,1.9323,1.9323,0,0,1.9205,1.9226,1.9228,1.9235,1.925,1.9257,1.9267,1.9279,1.9285,1.9294,1.9303,1.9317,1.9319,1.9325,1.933,1.9337,1.9346,1.9337,1.9337,1.9339,1.9361,1.9361,1.9362,1.9348,1.9348,1.9348,1.9361,0,1.9209,1.9227,1.9236,1.925,1.9259,1.9268,1.9276,1.9287,1.9294,1.9304,1.9312,1.9322,1.9323,1.9327,1.9334,1.9343,1.935,1.9342,1.9357,1.9357,1.9354,1.9364,1.9363,1.9374,1.9362,1.9362,1.9363,0,1.9215,1.9227,1.9242,1.9259,1.9263,1.927,1.9284,1.9293,1.9306,1.9311,1.932,1.9326,1.9338,1.9336,1.9353,1.9348,1.9355,1.936,1.9361,1.9362,1.936,1.9366,1.9377,1.9379,1.9365,1.9365,1.9365,0,1.9211,1.9231,1.9243,1.9249,1.9268,1.9274,1.9282,1.9295,1.9303,1.9315,1.932,1.9333,1.934,1.9351,1.936,1.9358,1.9377,1.9376,1.9383,1.9382,1.9385,1.9385,1.9398,1.939,1.939,1.939,1.939,0,1.9215,1.9224,1.9242,1.9249,1.9261,1.9272,1.9284,1.9292,1.9305,1.9315,1.9323,1.9332,1.9344,1.9356,1.9363,1.9378,1.938,1.9386,1.9387,1.9385,1.9384,1.9389,1.9389,1.939,1.939,1.939,1.939,0,1.9211,1.9223,1.9238,1.9256,1.9261,1.9269,1.9284,1.9293,1.9302,1.9315,1.9319,1.9334,1.9348,1.9359,1.9377,1.9382,1.9398,1.9399,1.9394,1.9395,1.9401,1.9401,1.9417,1.9421,1.941,1.941,1.941,0,1.9212,1.922,1.924,1.9248,1.9257,1.9269,1.9278,1.9291,1.93,1.9317,1.9324,1.9339,1.9352,1.9374,1.9387,1.9401,1.9404,1.9409,1.9406,1.9404,1.9405,1.9405,1.9406,1.9409,1.9409,1.9409,1.9409,0,1.9214,1.9221,1.9233,1.9249,1.926,1.9273,1.9286,1.9292,1.9307,1.9317,1.9333,1.9343,1.9363,1.9378,1.9395,1.9404,1.941,1.9411,1.9413,1.941,1.9407,1.941,1.9395,1.941,1.941,1.9409,1.9409,1.9409,1.9213,1.9222,1.9238,1.9253,1.9265,1.9277,1.9287,1.9299,1.9312,1.933,1.9337,1.9354,1.9369,1.9393,1.9402,1.9416,1.9416,1.9419,1.942,1.9421,1.9421,1.9405,1.9419,1.9419,1.9419,1.9419,1.9419,0,1.9216,1.9228,1.9241,1.9261,1.9273,1.9279,1.9294,1.9304,1.9319,1.9333,1.9347,1.9366,1.9382,1.9397,1.9415,1.9423,1.9426,1.9427,1.9426,1.9429,1.9419,1.9416,1.9424,1.9424,1.9424,1.9424,1.9424,1.9424,1.9219,1.9234,1.9243,1.9265,1.9277,1.9294,1.9303,1.9315,1.9327,1.9349,1.9363,1.9373,1.9389,1.9408,1.9423,1.9428,1.9434,1.9434,1.9439,1.943,1.9429,1.9428,1.9425,1.9435,1.9435,1.9447,1.9448,1.9448]},{"header":{"parameterUnit":"m.s-1","parameterCategory":1,"la1":30.2991,"la2":30.254,"lo1":-89.0895,"lo2":-89.0444,"dy":0.0017,"dx":0.0017,"nx":28,"ny":28,"refTime":"2024-03-09T03:00:00:Z","depth":0,"parameterNumber":3,"parameterNumberName":"V-component_of_WINDS"},"data":[0,0,0,0,0,0,0,0,0,0,0,0,0,0,0,0,0,0,0,0,0,0,0,0,0,0,0,0,0,0,0,0,0,0,0,0,0,0,0,0,0,0,0,0,0,0,0,0,0,0,0,0,0,0,0,0,0,0,-5.6872,-5.6873,0,-5.6884,-5.6885,-5.6885,-5.6882,-5.6882,-5.6882,-5.6882,-5.6888,-5.6888,-5.6888,0,0,0,0,0,0,0,0,0,0,0,0,0,-5.6844,-5.6845,-5.6872,-5.6873,-5.6873,-5.6884,-5.6885,-5.6885,-5.6882,-5.6882,-5.6882,-5.6881,-5.6887,-5.6888,-5.6888,0,0,0,0,0,0,0,0,0,0,0,0,0,-5.6856,-5.6845,-5.6872,-5.6873,-5.6873,-5.6884,-5.6885,-5.6885,-5.6882,-5.6882,-5.6882,-5.6881,-5.6887,-5.6888,-5.6888,-5.6898,0,0,-5.689,-5.689,0,0,0,0,0,0,0,0,-5.6855,-5.6857,-5.6873,-5.6873,-5.6873,-5.6882,-5.6877,-5.6889,-5.6882,-5.6879,-5.6882,-5.6881,-5.6885,-5.6886,-5.6889,-5.6898,-5.6898,-5.689,-5.689,-5.689,-5.6891,0,0,0,0,0,0,0,-5.6855,-5.6857,-5.6877,-5.6873,-5.6873,-5.6872,-5.6873,-5.6879,-5.6883,-5.6879,-5.6879,-5.6881,-5.6885,-5.6888,-5.6889,-5.6898,-5.689,-5.689,-5.6891,-5.6891,-5.6919,-5.692,0,0,0,0,0,0,-5.6854,-5.6856,-5.6877,-5.6877,-5.6864,-5.6873,-5.6874,-5.6879,-5.6883,-5.6884,-5.6881,-5.688,-5.6888,-5.6888,-5.6889,-5.6902,-5.689,-5.6891,-5.6891,-5.6919,-5.6919,-5.692,0,0,0,0,0,0,-5.6854,-5.6856,-5.6876,-5.6867,-5.6869,-5.6873,-5.6879,-5.6879,-5.6882,-5.6885,-5.6885,-5.6883,-5.6887,-5.6888,-5.6897,-5.6902,-5.6891,-5.6892,-5.6918,-5.6919,-5.692,-5.6928,0,0,0,0,0,0,-5.6853,-5.6856,-5.686,-5.6867,-5.687,-5.6884,-5.6879,-5.688,-5.6884,-5.6884,-5.6887,-5.6887,-5.6887,-5.6896,-5.6897,-5.6903,-5.6892,-5.6918,-5.6919,-5.6919,-5.6927,-5.6928,-5.693,0,0,0,0,0,-5.6852,-5.6859,-5.686,-5.6862,-5.6875,-5.6885,-5.6886,-5.6888,-5.6885,-5.6888,-5.6891,-5.6887,-5.6902,-5.6897,-5.6898,-5.6904,-5.6917,-5.6918,-5.6919,-5.6926,-5.6928,-5.693,0,0,0,0,0,0,-5.6849,-5.686,-5.6861,-5.6871,-5.6878,-5.6884,-5.6889,-5.6889,-5.6894,-5.6893,-5.6893,-5.6894,-5.6903,-5.6905,-5.6899,-5.6915,-5.6909,-5.691,-5.6914,-5.6916,-5.6917,-5.6916,-5.6893,0,0,0,0,0,-5.6851,-5.6859,-5.6868,-5.6876,-5.6879,-5.6884,-5.6888,-5.6889,-5.6895,-5.6896,-5.6899,-5.6903,-5.6909,-5.6913,-5.6918,-5.6928,-5.6929,-5.6933,-5.6934,-5.6936,-5.6936,-5.6944,-5.6946,-5.6923,-5.6923,-5.6923,0,0,-5.6852,-5.6859,-5.6864,-5.6876,-5.6881,-5.6889,-5.6886,-5.6893,-5.69,-5.6897,-5.6906,-5.6909,-5.6913,-5.6924,-5.6928,-5.6925,-5.6944,-5.6937,-5.6938,-5.6938,-5.6945,-5.6947,-5.6949,-5.6924,-5.6924,-5.6923,0,0,-5.6859,-5.6865,-5.6874,-5.6881,-5.689,-5.6893,-5.6896,-5.6904,-5.6906,-5.6916,-5.6916,-5.6922,-5.6932,-5.6936,-5.6939,-5.6954,-5.6951,-5.6955,-5.6962,-5.697,-5.6972,-5.6974,-5.698,-5.6982,-5.6956,-5.6956,-5.6956,0,-5.6859,-5.6873,-5.6878,-5.6888,-5.6893,-5.6896,-5.6905,-5.691,-5.6919,-5.6923,-5.692,-5.6935,-5.6938,-5.695,-5.6955,-5.6957,-5.696,-5.6954,-5.6972,-5.6973,-5.6975,-5.6981,-5.6983,-5.6957,-5.6957,-5.6957,-5.6957,0,-5.6873,-5.6883,-5.6889,-5.6902,-5.6908,-5.6917,-5.6924,-5.693,-5.6932,-5.6936,-5.6948,-5.6952,-5.696,-5.6963,-5.6963,-5.6977,-5.6975,-5.6972,-5.6965,-5.6978,-5.6983,-5.6985,-5.6958,-5.6957,-5.6957,-5.6957,0,0,-5.6875,-5.6895,-5.6897,-5.6904,-5.6917,-5.6924,-5.6934,-5.6945,-5.695,-5.6958,-5.6966,-5.6977,-5.6976,-5.698,-5.6981,-5.6988,-5.7001,-5.6985,-5.6985,-5.6988,-5.7018,-5.702,-5.7022,-5.7001,-5.7001,-5.7001,-5.7018,0,-5.6883,-5.6904,-5.6911,-5.6927,-5.6937,-5.6942,-5.6951,-5.6959,-5.6965,-5.6973,-5.6978,-5.6986,-5.6984,-5.6987,-5.6994,-5.6998,-5.7007,-5.6997,-5.7008,-5.7008,-5.7006,-5.7025,-5.7026,-5.7041,-5.702,-5.702,-5.702,0,-5.6895,-5.6907,-5.6925,-5.694,-5.6945,-5.6953,-5.6965,-5.6974,-5.6984,-5.6987,-5.6995,-5.6997,-5.7008,-5.7003,-5.7018,-5.7011,-5.7016,-5.702,-5.702,-5.702,-5.7014,-5.7025,-5.7045,-5.7047,-5.7023,-5.7023,-5.7023,0,-5.6896,-5.6916,-5.6931,-5.6937,-5.6954,-5.696,-5.6967,-5.6978,-5.6985,-5.6995,-5.7,-5.7011,-5.7016,-5.7024,-5.7029,-5.7025,-5.7045,-5.7039,-5.7048,-5.7048,-5.705,-5.705,-5.7071,-5.7054,-5.7054,-5.7054,-5.7054,0,-5.6904,-5.6915,-5.6932,-5.694,-5.6954,-5.6963,-5.6975,-5.6982,-5.6993,-5.7003,-5.7006,-5.7015,-5.7022,-5.7032,-5.7036,-5.7049,-5.7051,-5.7054,-5.7054,-5.7053,-5.7053,-5.7056,-5.7054,-5.7055,-5.7055,-5.7054,-5.7054,0,-5.6906,-5.6918,-5.6934,-5.6952,-5.6956,-5.6965,-5.6979,-5.6988,-5.6995,-5.7008,-5.7012,-5.7022,-5.7035,-5.7041,-5.7055,-5.7058,-5.7073,-5.7073,-5.707,-5.7071,-5.7079,-5.7078,-5.7102,-5.7106,-5.7087,-5.7087,-5.7087,0,-5.6911,-5.692,-5.694,-5.6949,-5.6957,-5.697,-5.6979,-5.6989,-5.6997,-5.7013,-5.702,-5.7033,-5.7044,-5.7064,-5.7072,-5.7084,-5.7084,-5.7092,-5.7086,-5.7085,-5.7085,-5.7084,-5.7086,-5.7092,-5.7093,-5.7093,-5.7093,0,-5.6918,-5.6924,-5.6938,-5.6955,-5.6966,-5.6979,-5.6991,-5.6998,-5.701,-5.702,-5.7034,-5.7043,-5.7061,-5.7074,-5.7088,-5.7094,-5.7095,-5.7096,-5.7098,-5.7096,-5.7095,-5.7096,-5.7073,-5.7094,-5.7094,-5.7094,-5.7094,-5.7094,-5.6921,-5.6931,-5.6948,-5.6964,-5.6975,-5.6988,-5.6998,-5.7009,-5.7022,-5.7039,-5.7044,-5.706,-5.7073,-5.7091,-5.7099,-5.7111,-5.7109,-5.7112,-5.7113,-5.7114,-5.7114,-5.7094,-5.7113,-5.7113,-5.7113,-5.7113,-5.7113,0,-5.6929,-5.6941,-5.6956,-5.6976,-5.6989,-5.6993,-5.7009,-5.7019,-5.7033,-5.7047,-5.7059,-5.7077,-5.7091,-5.7103,-5.7117,-5.7125,-5.7126,-5.7128,-5.7127,-5.7129,-5.7115,-5.7111,-5.7127,-5.7127,-5.7127,-5.7127,-5.7127,-5.7127,-5.6934,-5.6952,-5.6961,-5.6985,-5.6997,-5.7015,-5.7023,-5.7035,-5.7047,-5.7068,-5.7081,-5.7089,-5.7102,-5.7119,-5.7132,-5.7135,-5.714,-5.7142,-5.7145,-5.7131,-5.713,-5.7128,-5.7125,-5.7143,-5.7143,-5.7159,-5.7159,-5.7159]}]]